Siloam Springs, AR

3:30 PM CST on February 25, 2017 (GMT -0600)
Smith

Weather History for KSLG - February, 2013

Change the Weather History Date:

Thursday, February 28, 2013

  Actual Average Record
Temperature  
Mean Temperature 30 °F -  
Max Temperature 35 °F 49 °F 75 °F (2006)
Min Temperature 26 °F 31 °F 15 °F (2002)
Degree Days  
Heating Degree Days 34    
Moisture  
Dew Point 23 °F    
Average Humidity 67    
Maximum Humidity 80    
Minimum Humidity 56    
Precipitation  
Precipitation 0.00 in - - ()
Sea Level Pressure  
Sea Level Pressure 30.16 in    
Wind  
Wind Speed 11 mph (NW)    
Max Wind Speed 17 mph    
Max Gust Speed 23 mph    
Visibility 10 miles    
Events      
Averages and records for this station are not official NWS values.
T = Trace of Precipitation, MM = Missing Value Source: NWS Daily Summary

Daily Weather History Graph

Daily Weather History Graph

Search for Another Location

Airport or City:

Trip Planner

Search our weather history database for the weather conditions in past years. The results will help you decide how hot, cold, wet, or windy it might be!

Date:

Astronomy

Feb. 28, 2013 Rise Set
Actual Time 6:49 AM CST 6:12 PM CST
Civil Twilight 6:23 AM CST 6:37 PM CST
Nautical Twilight 5:53 AM CST 7:07 PM CST
Astronomical Twilight 5:23 AM CST 7:37 PM CST
Moon 9:31 PM CST (2/28) 8:06 AM CST (2/28)
Length of Visible Light 12h 14m
Length of Day
11h 22m
Waning Gibbous, 90% of the Moon is Illuminated
Feb 28
Waning Gibbous
Mar 4
Last Quarter
Mar 11
New
Mar 19
First Quarter
Mar 27
Full

Hourly Weather History & Observations

Time (CST) Temp. Windchill Dew Point Humidity Pressure Visibility Wind Dir Wind Speed Gust Speed Precip Events Conditions
12:15 AM 30.2 °F 21.9 °F 21.2 °F 69% 30.09 in 10.0 mi WNW 9.2 mph - N/A   Clear
1:15 AM 30.2 °F 20.8 °F 21.2 °F 69% 30.10 in 10.0 mi NW 11.5 mph - N/A   Clear
1:35 AM 30.2 °F 21.3 °F 21.2 °F 69% 30.10 in 10.0 mi NW 10.4 mph - N/A   Clear
1:55 AM 30.2 °F 21.3 °F 21.2 °F 69% 30.10 in 10.0 mi NW 10.4 mph - N/A   Clear
2:15 AM 30.2 °F 21.3 °F 21.2 °F 69% 30.10 in 10.0 mi WNW 10.4 mph - N/A   Clear
2:35 AM 30.2 °F 21.3 °F 21.2 °F 69% 30.10 in 10.0 mi WNW 10.4 mph - N/A   Clear
2:55 AM 30.2 °F 22.6 °F 21.2 °F 69% 30.11 in 10.0 mi WNW 8.1 mph - N/A   Clear
3:15 AM 28.4 °F 21.2 °F 21.2 °F 74% 30.11 in 10.0 mi West 6.9 mph - N/A   Clear
3:55 AM 28.4 °F 20.4 °F 21.2 °F 74% 30.11 in 10.0 mi West 8.1 mph - N/A   Clear
4:35 AM 28.4 °F 19.1 °F 21.2 °F 74% 30.11 in 10.0 mi NW 10.4 mph - N/A   Clear
4:55 AM 28.4 °F 19.1 °F 21.2 °F 74% 30.11 in 10.0 mi WNW 10.4 mph - N/A   Clear
5:15 AM 28.4 °F 20.4 °F 21.2 °F 74% 30.12 in 10.0 mi WNW 8.1 mph - N/A   Clear
5:35 AM 28.4 °F 20.4 °F 21.2 °F 74% 30.13 in 9.0 mi WNW 8.1 mph - N/A   Clear
5:55 AM 26.6 °F 18.2 °F 21.2 °F 80% 30.13 in 9.0 mi WNW 8.1 mph - N/A   Clear
6:15 AM 26.6 °F 18.2 °F 19.4 °F 74% 30.13 in 8.0 mi WNW 8.1 mph - N/A   Clear
6:55 AM 26.6 °F 18.2 °F 21.2 °F 80% 30.14 in 6.0 mi West 8.1 mph - N/A   Scattered Clouds
7:15 AM 28.4 °F 21.2 °F 21.2 °F 74% 30.15 in 6.0 mi WNW 6.9 mph - N/A   Overcast
7:35 AM 28.4 °F 19.1 °F 23.0 °F 80% 30.15 in 7.0 mi WNW 10.4 mph - N/A   Overcast
7:55 AM 30.2 °F 21.9 °F 23.0 °F 75% 30.16 in 7.0 mi WNW 9.2 mph - N/A   Overcast
8:15 AM 30.2 °F 20.8 °F 23.0 °F 75% 30.16 in 8.0 mi WNW 11.5 mph - N/A   Overcast
8:35 AM 30.2 °F 21.3 °F 23.0 °F 75% 30.17 in 8.0 mi NW 10.4 mph - N/A   Overcast
8:55 AM 30.2 °F 19.8 °F 23.0 °F 75% 30.17 in 9.0 mi NNW 13.8 mph 20.7 mph N/A   Overcast
9:15 AM 32.0 °F 21.2 °F 23.0 °F 69% 30.17 in 10.0 mi NW 16.1 mph 20.7 mph N/A   Overcast
9:35 AM 33.8 °F 23.5 °F 24.8 °F 70% 30.17 in 10.0 mi NW 16.1 mph 21.9 mph N/A   Overcast
9:55 AM 33.8 °F 23.5 °F 24.8 °F 70% 30.18 in 10.0 mi NW 16.1 mph - N/A   Overcast
10:15 AM 33.8 °F 23.5 °F 24.8 °F 70% 30.18 in 10.0 mi NW 16.1 mph - N/A   Overcast
10:35 AM 35.6 °F 26.2 °F 24.8 °F 65% 30.18 in 10.0 mi NNW 15.0 mph - N/A   Overcast
10:55 AM 35.6 °F 25.5 °F 23.0 °F 60% 30.17 in 10.0 mi NNW 17.3 mph 23.0 mph N/A   Overcast
11:15 AM 35.6 °F 25.5 °F 24.8 °F 65% 30.17 in 10.0 mi NW 17.3 mph 20.7 mph N/A   Overcast
11:35 AM 35.6 °F 25.5 °F 23.0 °F 60% 30.18 in 10.0 mi NW 17.3 mph - N/A   Overcast
11:55 AM 35.6 °F 25.5 °F 24.8 °F 65% 30.18 in 10.0 mi NW 17.3 mph - N/A   Overcast
12:15 PM 35.6 °F 26.2 °F 24.8 °F 65% 30.18 in 10.0 mi NW 15.0 mph - N/A   Overcast
12:35 PM 35.6 °F 25.9 °F 24.8 °F 65% 30.19 in 10.0 mi NW 16.1 mph - N/A   Overcast
12:55 PM 35.6 °F 27.1 °F 24.8 °F 65% 30.18 in 10.0 mi NW 12.7 mph - N/A   Overcast
1:15 PM 35.6 °F 26.6 °F 24.8 °F 65% 30.18 in 10.0 mi NW 13.8 mph 20.7 mph N/A   Overcast
1:35 PM 35.6 °F 26.6 °F 24.8 °F 65% 30.18 in 10.0 mi NNW 13.8 mph - N/A   Overcast
1:55 PM 35.6 °F 27.1 °F 23.0 °F 60% 30.17 in 10.0 mi NNW 12.7 mph - N/A   Overcast
2:15 PM 35.6 °F 28.6 °F 23.0 °F 60% 30.18 in 10.0 mi NW 9.2 mph - N/A   Overcast
2:35 PM 35.6 °F 27.1 °F 24.8 °F 65% 30.18 in 10.0 mi NW 12.7 mph - N/A   Overcast
2:55 PM 35.6 °F 28.6 °F 24.8 °F 65% 30.18 in 10.0 mi NW 9.2 mph - N/A   Overcast
3:35 PM 35.6 °F 27.1 °F 23.0 °F 60% 30.18 in 10.0 mi NW 12.7 mph - N/A   Overcast
3:55 PM 35.6 °F 26.2 °F 23.0 °F 60% 30.18 in 10.0 mi NNW 15.0 mph - N/A   Overcast
4:15 PM 35.6 °F 27.5 °F 23.0 °F 60% 30.17 in 10.0 mi NW 11.5 mph - N/A   Overcast
4:35 PM 35.6 °F 26.6 °F 23.0 °F 60% 30.18 in 10.0 mi WNW 13.8 mph - N/A   Overcast
4:55 PM 35.6 °F 26.2 °F 23.0 °F 60% 30.18 in 10.0 mi WNW 15.0 mph - N/A   Overcast
5:15 PM 35.6 °F 26.2 °F 21.2 °F 56% 30.17 in 10.0 mi NW 15.0 mph - N/A   Overcast
5:55 PM 35.6 °F 29.2 °F 21.2 °F 56% 30.18 in 10.0 mi NW 8.1 mph - N/A   Overcast
6:15 PM 35.6 °F 28.0 °F 21.2 °F 56% 30.18 in 10.0 mi NNW 10.4 mph - N/A   Overcast
6:35 PM 33.8 °F 25.3 °F 23.0 °F 65% 30.19 in 10.0 mi NW 11.5 mph - N/A   Overcast
6:55 PM 33.8 °F 26.4 °F 23.0 °F 65% 30.19 in 10.0 mi NW 9.2 mph - N/A   Overcast
7:35 PM 33.8 °F 25.3 °F 23.0 °F 65% 30.19 in 10.0 mi NW 11.5 mph - N/A   Overcast
7:55 PM 33.8 °F 25.8 °F 21.2 °F 60% 30.19 in 10.0 mi NW 10.4 mph - N/A   Overcast
8:15 PM 33.8 °F 27.0 °F 21.2 °F 60% 30.19 in 10.0 mi NW 8.1 mph - N/A   Overcast
8:35 PM 33.8 °F 27.0 °F 21.2 °F 60% 30.19 in 10.0 mi NNW 8.1 mph - N/A   Overcast
9:15 PM 33.8 °F 27.0 °F 23.0 °F 65% 30.20 in 10.0 mi NNW 8.1 mph - N/A   Overcast
9:35 PM 33.8 °F 26.4 °F 23.0 °F 65% 30.20 in 10.0 mi NNW 9.2 mph - N/A   Overcast
9:55 PM 33.8 °F 27.0 °F 23.0 °F 65% 30.20 in 10.0 mi NNW 8.1 mph - N/A   Overcast
10:15 PM 32.0 °F 24.8 °F 21.2 °F 64% 30.20 in 10.0 mi NNW 8.1 mph - N/A   Overcast
10:35 PM 32.0 °F 23.6 °F 23.0 °F 69% 30.20 in 10.0 mi NNW 10.4 mph - N/A   Overcast
10:55 PM 32.0 °F 24.2 °F 23.0 °F 69% 30.19 in 10.0 mi NNW 9.2 mph - N/A   Overcast
11:15 PM 32.0 °F 23.6 °F 23.0 °F 69% 30.19 in 10.0 mi NNW 10.4 mph - N/A   Overcast
11:35 PM 32.0 °F 21.2 °F 21.2 °F 64% 30.19 in 10.0 mi NNW 16.1 mph 20.7 mph N/A   Overcast
11:55 PM 32.0 °F 21.6 °F 21.2 °F 64% 30.19 in 10.0 mi NNW 15.0 mph - N/A   Overcast